x

9444090 - Port Angeles, Wa (ptaw1) Weather Station

4:30am - Fri 1st Jul 2016 All times are PDT. -7 hours from GMT.

  • Wind
    5mph, 10mph gusts
  • Sea Temp 52°f
  • Air Temp 56°f
  • Sea Pressure 1019.6mb
  • 9444090 - Port Angeles, Wa
  • 9444090 - Port Angeles, Wa

More Historic Weather Station data

Upgrade to MSW Pro to gain access to the past 30 days of data for over 8000 Wavebouys and Weather Stations around the globe.

Join Pro

Comparision Forecast

View Surf forecast
   
Fri 07/01 4:30am 5 10 mph 1019.6mb 52f 56f
4:24am 6 10 mph 1019.6mb 52f 56f
4:18am 5 9 mph 1019.6mb 52f 56f
4:12am 6 9 mph 1019.6mb 52f 56f
4:06am 6 10 mph 1019.6mb 52f 56f
4:00am 6 9 mph 1019.6mb 52f 56f
3:36am 6 10 mph 1019.7mb 52f 56f
3:30am 6 11 mph 1019.8mb 52f 56f
3:24am 7 14 mph 1019.9mb 52f 56f
3:18am 7 10 mph 1019.9mb 52f 56f
3:12am 5 9 mph 1019.8mb 52f 56f
3:06am 5 11 mph 1019.8mb 52f 56f
3:00am 6 9 mph 1019.8mb 52f 56f
2:36am 6 10 mph 1019.9mb 53f 56f
2:30am 8 13 mph 1020mb 52f 56f
2:24am 6 10 mph 1019.9mb 52f 56f
2:18am 7 11 mph 1019.9mb 53f 56f
2:12am 6 9 mph 1019.9mb 53f 56f
2:06am 6 10 mph 1020mb 53f 56f
2:00am 6 10 mph 1020mb 53f 56f
1:36am 5 8 mph 1020.1mb 53f 56f
1:30am 3 9 mph 1020.2mb 53f 56f
1:24am 3 9 mph 1020.2mb 53f 57f
1:18am 3 11 mph 1020.3mb 53f 57f
1:12am 7 10 mph 1020.3mb 53f 57f
1:06am 5 14 mph 1020.4mb 53f 57f
1:00am 7 11 mph 1020.4mb 53f 57f
12:36am 3 9 mph 1020.6mb 53f 57f
12:30am 6 13 mph 1020.6mb 53f 57f
12:24am 8 14 mph 1020.6mb 53f 57f
12:18am 8 16 mph 1020.6mb 53f 57f
12:12am 11 16 mph 1020.5mb 53f 57f
12:06am 11 16 mph 1020.5mb 53f 57f
12:00am 13 22 mph 1020.6mb 53f 57f
Thu 06/30 11:36pm 9 16 mph 1020.6mb 53f 57f
11:30pm 11 15 mph 1020.7mb 53f 57f
11:24pm 11 17 mph 1020.7mb 53f 57f
11:18pm 13 18 mph 1020.7mb 53f 57f
11:12pm 9 14 mph 1020.7mb 53f 57f
11:06pm 7 11 mph 1020.8mb 53f 57f
11:00pm 10 18 mph 1020.8mb 53f 57f
10:36pm 7 14 mph 1020.9mb 53f 56f
10:30pm 7 14 mph 1021mb 53f 56f
10:24pm 9 14 mph 1021mb 53f 56f
10:18pm 10 14 mph 1021.1mb 53f 56f
10:12pm 8 14 mph 1021.1mb 53f 56f
10:06pm 10 14 mph 1021.1mb 53f 56f
10:00pm 9 21 mph 1021.1mb 53f 56f
9:36pm 11 14 mph 1021.1mb 53f 57f
9:30pm 10 16 mph 1021.1mb 53f 57f
9:24pm 11 17 mph 1021.1mb 53f 57f
9:18pm 10 15 mph 1021.1mb 53f 57f
9:12pm 10 14 mph 1021mb 53f 57f
9:06pm 10 14 mph 1021mb 53f 58f
9:00pm 9 13 mph 1020.9mb 53f 58f
8:36pm 8 13 mph 1021mb 53f 58f
8:30pm 10 16 mph 1021mb 53f 58f
8:24pm 14 17 mph 1021.1mb 53f 58f
8:18pm 10 15 mph 1021.1mb 53f 58f
8:12pm 14 17 mph 1021.1mb 53f 58f
8:06pm 16 18 mph 1021.1mb 53f 58f
8:00pm 17 21 mph 1021.1mb 53f 58f
7:36pm 16 21 mph - 53f 58f
7:30pm 18 23 mph - 53f 58f
7:24pm 17 24 mph - 53f 59f
7:18pm 18 22 mph - 53f 59f
7:12pm 18 23 mph - 53f 58f
7:06pm 18 24 mph - 53f 58f
7:00pm 21 25 mph - 53f 59f
6:36pm 21 24 mph - 53f 58f
6:30pm 20 24 mph - 53f 59f
6:24pm 20 24 mph - 53f 58f
6:18pm 18 24 mph - 53f 58f
6:12pm 20 25 mph - 53f 58f
6:06pm 18 24 mph - 53f 58f
6:00pm 21 25 mph - 53f 58f
5:30pm  -  mph - 53f 57f
5:24pm  -  mph - 53f 57f
5:18pm  -  mph - 53f 57f
5:12pm  -  mph - 53f 58f
5:06pm  -  mph - 53f 58f
5:00pm  -  mph - 53f 58f
4:36pm  -  mph 1022.4mb 53f 58f
3:36pm  -  mph 1022.8mb 53f 58f
3:30pm  -  mph 1022.9mb 53f 57f
3:24pm  -  mph 1022.9mb 53f 57f
3:18pm  -  mph 1023mb 53f 57f
3:12pm  -  mph 1023mb 53f 57f
3:06pm  -  mph 1022.9mb 53f 57f
3:00pm  -  mph 1023mb 53f 58f
2:36pm 22 28 mph 1023mb 53f 58f
2:30pm 22 28 mph 1023.2mb 52f 58f
2:24pm 21 26 mph 1023.2mb 52f 58f
2:18pm 22 26 mph 1023.3mb 52f 58f
2:12pm 23 26 mph 1023.4mb 52f 58f
2:06pm 22 25 mph 1023.4mb 52f 57f
2:00pm 21 29 mph 1023.5mb 52f 57f
1:36pm 21 25 mph 1023.5mb 52f 57f
1:30pm 21 26 mph 1023.6mb 52f 57f
1:24pm 21 24 mph 1023.6mb 52f 57f
1:18pm 18 24 mph 1023.7mb 52f 57f
1:12pm 18 23 mph 1023.8mb 52f 56f
1:06pm 16 21 mph 1023.8mb 52f 56f
1:00pm 16 21 mph 1023.9mb 52f 56f
12:36pm 15 20 mph 1024mb 52f 57f
12:30pm 16 18 mph 1024mb 52f 57f
12:24pm 15 18 mph 1024mb 52f 57f
12:18pm 15 18 mph 1024mb 52f 57f
12:12pm 15 18 mph 1024mb 52f 57f
12:06pm 15 17 mph 1024mb 52f 56f
12:00pm 16 20 mph 1024mb 53f 56f
11:36am 13 17 mph 1024mb 53f 56f
11:30am 14 18 mph 1024mb 53f 56f
11:24am 14 17 mph 1023.9mb 52f 56f
11:18am 14 16 mph 1023.8mb 52f 56f
11:12am 14 18 mph 1023.8mb 52f 56f
11:06am 14 18 mph 1023.8mb 52f 56f
11:00am 16 22 mph 1023.7mb 52f 56f
10:36am 18 22 mph 1023.7mb 52f 57f
10:30am 16 21 mph 1023.8mb 52f 57f
10:24am 17 22 mph 1023.8mb 52f 56f
10:18am 17 23 mph 1023.8mb 52f 56f
10:12am 17 24 mph 1023.9mb 52f 56f
10:06am 18 24 mph 1023.9mb 52f 56f
10:00am 20 25 mph 1023.8mb 52f 56f
9:36am 18 24 mph 1023.9mb 52f 55f
9:30am 18 24 mph 1023.8mb 52f 55f
9:24am 18 22 mph 1023.8mb 52f 55f
9:18am 16 22 mph 1023.7mb 52f 55f
9:12am 17 25 mph 1023.6mb 52f 55f
9:06am 20 24 mph 1023.6mb 52f 55f
9:00am 18 25 mph 1023.6mb 52f 55f
8:24am  -  mph 1023.6mb 52f 57f
8:18am  -  mph 1023.6mb 52f 57f
8:12am  -  mph 1023.6mb 52f 57f
8:06am  -  mph 1023.5mb 52f 57f
8:00am  -  mph 1023.4mb 52f 57f
7:36am 8 13 mph 1023.3mb 52f 58f
7:30am 6 10 mph 1023.3mb 52f 58f
7:24am 6 11 mph 1023.3mb 52f 58f
7:18am 6 9 mph 1023.4mb 52f 58f
7:12am 5 8 mph 1023.5mb 52f 58f
7:06am 7 11 mph 1023.4mb 52f 58f
7:00am 5 10 mph 1023.2mb 52f 57f
6:36am 5 8 mph 1023.2mb 52f 57f
6:30am 6 8 mph 1023.1mb 52f 56f
6:24am 6 13 mph 1023.1mb 52f 56f
6:18am 6 14 mph 1023.1mb 52f 56f
6:12am 9 16 mph 1023.1mb 52f 56f
6:06am 10 16 mph 1023mb 52f 56f
6:00am 11 18 mph 1023mb 52f 56f
5:36am 6 13 mph 1023mb 52f 56f
5:30am 6 11 mph 1023mb 52f 56f
5:24am 7 14 mph 1023mb 52f 55f
5:18am 10 16 mph 1023mb 52f 56f
5:12am 5 9 mph 1023mb 52f 55f
5:06am 3 8 mph 1023.1mb 52f 56f
5:00am 6 11 mph 1023mb 52f 56f
4:36am 13 18 mph 1022.6mb 52f 56f
4:30am 13 21 mph 1022.5mb 52f 56f
4:24am 14 18 mph 1022.4mb 52f 56f
4:18am 13 21 mph 1022.4mb 52f 56f
4:12am 14 18 mph 1022.5mb 52f 56f
4:06am 8 15 mph 1022.4mb 52f 56f
4:00am 8 21 mph 1022.3mb 52f 56f
3:54am 8 15 mph 1022.2mb 52f 56f
3:48am 9 14 mph 1022.2mb 52f 56f
3:36am 10 15 mph 1022.3mb 52f 56f
3:30am 10 15 mph 1022.3mb 52f 56f
3:24am 8 13 mph 1022.3mb 52f 56f
3:18am 8 13 mph 1022.3mb 52f 56f
3:12am 9 14 mph 1022.3mb 52f 56f
3:06am 9 14 mph 1022.3mb 52f 56f
3:00am 9 13 mph 1022.3mb 52f 56f
2:54am 8 14 mph 1022.4mb 52f 56f
2:48am 9 16 mph 1022.4mb 52f 56f
2:36am 10 14 mph 1022.4mb 52f 56f
2:30am 9 16 mph 1022.4mb 52f 56f
2:24am 10 16 mph 1022.4mb 52f 56f
2:18am 10 15 mph 1022.4mb 52f 56f
2:12am 11 18 mph 1022.3mb 52f 56f
2:06am 11 21 mph 1022.2mb 52f 56f
2:00am 11 18 mph 1022.2mb 52f 56f
1:54am 13 20 mph 1022.1mb 52f 56f
1:48am 9 16 mph 1022.2mb 52f 56f
1:36am 10 17 mph 1022.1mb 52f 56f
1:30am 9 16 mph 1022.1mb 52f 56f
1:24am 9 17 mph 1022.1mb 52f 56f
1:18am 8 15 mph 1022.1mb 52f 56f
1:12am 8 11 mph 1022.2mb 52f 56f
1:06am 7 16 mph 1022.2mb 52f 56f
1:00am 7 15 mph 1022.2mb 52f 56f
12:54am 9 15 mph 1022.1mb 52f 56f
12:48am 6 14 mph 1022.1mb 52f 56f
12:36am 6 16 mph 1021.9mb 52f 56f
12:30am 8 14 mph 1021.9mb 52f 56f
12:24am 6 15 mph 1021.9mb 52f 56f
12:18am 14 21 mph 1021.9mb 52f 56f
12:12am 14 22 mph 1021.9mb 52f 56f
12:06am 14 22 mph 1021.8mb 52f 56f
12:00am 15 23 mph 1021.9mb 52f 56f
Wed 06/29 11:54pm 14 21 mph 1021.9mb 51f 56f
11:48pm 14 20 mph 1021.8mb 51f 56f
11:36pm 11 23 mph 1021.9mb 52f 56f
11:30pm 13 22 mph 1021.9mb 52f 56f
11:24pm 9 15 mph 1021.9mb 52f 56f
11:18pm 10 22 mph 1021.9mb 52f 56f
11:12pm 14 21 mph 1021.8mb 52f 56f
11:06pm 11 17 mph 1021.9mb 52f 56f
11:00pm 13 20 mph 1021.9mb 52f 56f
10:54pm 14 25 mph 1021.8mb 52f 57f
10:48pm 14 21 mph 1021.8mb 52f 57f
10:36pm 16 25 mph 1021.8mb 52f 57f
10:30pm 13 18 mph 1021.8mb 52f 57f
10:24pm 11 18 mph 1021.8mb 52f 57f
10:18pm 13 21 mph 1021.9mb 52f 57f
10:12pm 13 26 mph 1021.8mb 52f 57f
10:06pm 17 24 mph 1021.8mb 52f 56f
10:00pm 17 23 mph 1021.7mb 53f 56f
9:54pm 20 26 mph 1021.7mb 53f 56f
9:48pm 17 23 mph 1021.6mb 53f 56f
9:36pm 23 29 mph 1021.5mb 53f 56f
9:30pm 23 31 mph 1021.5mb 53f 56f
9:24pm 20 29 mph 1021.5mb 53f 57f
9:18pm 17 23 mph 1021.5mb 53f 57f
9:12pm 18 23 mph 1021.5mb 53f 57f
9:06pm 16 24 mph 1021.5mb 53f 57f
9:00pm 20 24 mph 1021.5mb 53f 57f
8:54pm 18 23 mph 1021.6mb 53f 57f
8:48pm 17 24 mph 1021.6mb 53f 57f
8:36pm 24 32 mph 1021.5mb 53f 57f
8:30pm 18 26 mph 1021.5mb 53f 57f
8:24pm 21 30 mph 1021.5mb 53f 57f
8:18pm 17 25 mph 1021.6mb 53f 57f
8:12pm 18 23 mph 1021.6mb 53f 57f
8:06pm 18 28 mph 1021.6mb 53f 57f
8:00pm 18 26 mph 1021.6mb 53f 57f
7:54pm 18 23 mph 1021.5mb 53f 57f
7:48pm 17 22 mph 1021.4mb 53f 57f
7:36pm 16 22 mph 1021.4mb 53f 58f
7:30pm 23 30 mph 1021.1mb 53f 57f
7:24pm 21 29 mph 1021.2mb 53f 58f
7:18pm 22 29 mph 1021.2mb 53f 58f
7:12pm 22 30 mph 1021.1mb 53f 57f
7:06pm 24 31 mph 1021mb 53f 57f
7:00pm 22 31 mph 1021mb 53f 57f
6:54pm 23 30 mph 1020.9mb 53f 57f
6:48pm 24 30 mph 1020.9mb 53f 57f
6:36pm 25 33 mph - 53f 57f
6:30pm 24 33 mph - 53f 57f
6:24pm 25 32 mph - 53f 57f
6:18pm 25 31 mph - 53f 57f
6:12pm 29 37 mph - 53f 57f
6:06pm 25 34 mph - 53f 57f
6:00pm 24 33 mph - 53f 57f
5:54pm 25 32 mph - 53f 57f
5:48pm 28 36 mph - 53f 57f
5:36pm  -  mph 1020.9mb 53f 57f
5:30pm  -  mph 1021mb 53f 56f
5:24pm  -  mph 1021mb 53f 56f
5:18pm  -  mph 1020.9mb 53f 56f
5:12pm  -  mph 1021mb 53f 56f
5:06pm  -  mph 1021mb 53f 56f
5:00pm  -  mph 1021mb 53f 57f
4:54pm  -  mph 1021.1mb 53f 57f
4:48pm  -  mph 1021.2mb 53f 57f
4:36pm  -  mph 1021.3mb 53f 56f
4:30pm  -  mph 1021.3mb 53f 56f
4:24pm  -  mph 1021.4mb 53f 56f
4:18pm  -  mph 1021.4mb 53f 56f
4:12pm  -  mph 1021.4mb 53f 56f
4:06pm  -  mph 1021.5mb 53f 56f
4:00pm  -  mph 1021.4mb 53f 56f
3:54pm  -  mph 1021.6mb 53f 56f
3:48pm  -  mph 1021.6mb 53f 56f
3:36pm  -  mph 1021.8mb 53f 56f
3:30pm  -  mph 1021.7mb 53f 56f
3:24pm  -  mph 1021.7mb 53f 56f
3:18pm  -  mph 1021.7mb 53f 56f
3:12pm  -  mph 1021.8mb 53f 56f
3:06pm  -  mph 1021.8mb 53f 56f
3:00pm  -  mph 1021.8mb 53f 56f
2:54pm  -  mph 1021.8mb 53f 56f
2:48pm  -  mph 1021.8mb 53f 56f
2:36pm 21 26 mph 1021.8mb 53f 56f
2:30pm 22 28 mph 1021.9mb 53f 56f
2:24pm 21 26 mph 1021.9mb 53f 56f
2:18pm 23 26 mph 1021.9mb 53f 56f
2:12pm 21 25 mph 1021.9mb 53f 56f
2:06pm 22 25 mph 1022mb 53f 56f
2:00pm 22 26 mph 1022mb 53f 56f
1:54pm 21 25 mph 1022.1mb 53f 56f
1:48pm 20 26 mph 1022.1mb 53f 56f
1:36pm 22 26 mph 1022.2mb 53f 56f
1:30pm 21 26 mph 1022.2mb 53f 56f
1:24pm 21 25 mph 1022.3mb 53f 56f
1:18pm 21 26 mph 1022.3mb 53f 56f
1:12pm 21 25 mph 1022.4mb 53f 56f
1:06pm 21 26 mph 1022.4mb 53f 56f
1:00pm 18 23 mph 1022.5mb 53f 55f
12:54pm 22 25 mph 1022.5mb 53f 56f
12:48pm 18 24 mph 1022.6mb 53f 55f
12:36pm 18 25 mph 1022.7mb 53f 56f
12:30pm 20 25 mph 1022.7mb 53f 56f
12:24pm 21 25 mph 1022.8mb 53f 55f
12:18pm 21 26 mph 1022.7mb 53f 55f
12:12pm 20 25 mph 1022.7mb 53f 55f
12:06pm 20 24 mph 1022.7mb 53f 55f
12:00pm 20 25 mph 1022.7mb 53f 55f
11:54am 20 26 mph 1022.8mb 53f 55f
11:48am 18 24 mph 1022.8mb 53f 55f
11:36am 17 24 mph 1022.9mb 53f 55f
11:30am 17 23 mph 1022.9mb 53f 55f
11:24am 16 22 mph 1023mb 53f 55f
11:18am 16 22 mph 1023mb 53f 55f
11:12am 16 20 mph 1023mb 53f 55f
11:06am 16 21 mph 1023mb 53f 55f
11:00am 16 20 mph 1023mb 53f 55f
10:54am 14 18 mph 1023mb 53f 55f
10:48am 14 18 mph 1023mb 53f 55f
10:36am 14 17 mph 1023mb 53f 55f
10:30am 15 17 mph 1023mb 52f 55f
10:24am 14 16 mph 1023mb 52f 55f
10:18am 14 17 mph 1023mb 52f 55f
10:12am 14 17 mph 1023mb 52f 55f
10:06am 15 18 mph 1022.9mb 52f 55f
10:00am 14 17 mph 1022.9mb 52f 55f
9:54am 15 17 mph 1023mb 52f 55f
9:48am 14 17 mph 1023mb 52f 55f
9:36am 14 17 mph 1023mb 52f 55f
9:30am 14 17 mph 1023mb 52f 55f
9:24am 14 16 mph 1022.9mb 52f 55f
9:18am 15 17 mph 1022.9mb 52f 55f
9:12am 13 16 mph 1022.9mb 52f 55f
9:06am 14 16 mph 1022.9mb 52f 55f
9:00am 14 16 mph 1022.9mb 52f 55f
8:54am 13 15 mph 1022.9mb 52f 55f
8:48am 13 15 mph 1022.8mb 52f 55f
8:36am 13 15 mph 1022.8mb 52f 55f
8:30am 13 15 mph 1022.8mb 52f 55f
8:24am 10 13 mph 1022.8mb 52f 55f
8:18am 10 14 mph 1022.8mb 52f 55f
8:12am 10 14 mph 1022.8mb 52f 55f
8:06am 8 11 mph 1022.7mb 52f 55f
8:00am 7 13 mph 1022.7mb 52f 56f
7:54am 9 13 mph 1022.7mb 52f 56f
7:48am 7 13 mph 1022.7mb 52f 56f
7:36am 6 8 mph 1022.7mb 52f 56f
7:30am 6 14 mph 1022.7mb 52f 56f
7:24am 8 11 mph 1022.7mb 52f 56f
7:18am 8 10 mph 1022.7mb 52f 56f
7:12am 6 10 mph 1022.7mb 52f 56f
7:06am 6 9 mph 1022.7mb 52f 56f
7:00am 6 8 mph 1022.6mb 52f 56f
6:54am 5 9 mph 1022.6mb 52f 56f
6:48am 6 9 mph 1022.6mb 52f 56f
6:36am 7 10 mph 1022.5mb 52f 55f
6:30am 6 10 mph 1022.4mb 52f 55f
6:24am 5 9 mph 1022.4mb 52f 55f
6:18am 6 11 mph 1022.4mb 52f 55f
6:12am 6 9 mph 1022.4mb 52f 55f
6:06am 5 10 mph 1022.4mb 52f 55f
6:00am 8 11 mph 1022.4mb 52f 55f
5:54am 6 9 mph 1022.4mb 52f 55f
5:48am 6 8 mph 1022.4mb 52f 55f
5:36am 3 8 mph 1022.3mb 52f 55f
5:30am 6 9 mph 1022.2mb 53f 55f
5:24am 6 11 mph 1022.1mb 53f 55f
5:18am 6 9 mph 1022.1mb 52f 55f
5:12am 6 9 mph 1022mb 52f 55f
5:06am 7 10 mph 1022mb 53f 55f
5:00am 6 11 mph 1022mb 53f 55f
4:36am 6 9 mph 1021.8mb 53f 55f
4:30am 6 10 mph 1021.7mb 53f 55f
4:24am 5 9 mph 1021.7mb 53f 55f
4:18am 5 8 mph 1021.7mb 53f 55f
4:12am 6 9 mph 1021.7mb 53f 55f
4:06am 3 7 mph 1021.7mb 53f 55f
4:00am 6 8 mph 1021.7mb 53f 55f
3:54am 5 9 mph 1021.7mb 53f 55f
3:48am 5 7 mph 1021.7mb 53f 55f
3:36am 6 10 mph 1021.7mb 53f 55f
3:30am 7 11 mph 1021.7mb 53f 55f
3:24am 7 11 mph 1021.7mb 53f 55f
3:18am 6 14 mph 1021.7mb 53f 55f
3:12am 8 11 mph 1021.7mb 53f 55f
3:06am 9 14 mph 1021.7mb 53f 55f
3:00am 8 14 mph 1021.6mb 53f 55f
2:54am 9 14 mph 1021.6mb 53f 55f
2:48am 9 15 mph 1021.6mb 53f 55f
2:36am 6 13 mph 1021.6mb 53f 55f
2:30am 8 13 mph 1021.5mb 53f 55f
2:24am 8 11 mph 1021.5mb 53f 55f
2:18am 6 10 mph 1021.5mb 53f 55f
2:12am 7 10 mph 1021.4mb 53f 55f
2:06am 6 10 mph 1021.5mb 53f 55f
2:00am 7 10 mph 1021.5mb 53f 56f
1:54am 7 9 mph 1021.4mb 53f 56f
1:48am 6 9 mph 1021.4mb 53f 56f
1:36am 7 10 mph 1021.4mb 53f 56f
1:30am 6 10 mph 1021.4mb 53f 56f
1:24am 10 15 mph 1021.4mb 53f 56f
1:18am 9 15 mph 1021.4mb 53f 56f
1:12am 10 17 mph 1021.3mb 53f 56f
1:06am 14 16 mph 1021.3mb 53f 56f
1:00am 15 21 mph 1021.2mb 53f 56f
12:54am 13 18 mph 1021.2mb 53f 56f
12:48am 15 18 mph 1021.2mb 53f 56f
12:36am 10 16 mph 1021.2mb 53f 56f
12:30am 14 17 mph 1021.2mb 53f 56f
12:24am 14 17 mph 1021.2mb 53f 56f
12:18am 13 17 mph 1021.2mb 53f 56f
12:12am 13 18 mph 1021.2mb 53f 56f
12:06am 11 16 mph 1021.1mb 53f 56f
12:00am 11 14 mph 1021.1mb 53f 56f
Tue 06/28 11:54pm 13 16 mph 1021.1mb 53f 56f
11:48pm 11 14 mph 1021.1mb 53f 56f
11:36pm 11 17 mph 1021mb 53f 56f
11:30pm 13 17 mph 1021mb 53f 56f
11:24pm 13 17 mph 1020.9mb 53f 56f
11:18pm 15 18 mph 1021mb 53f 56f
11:12pm 15 23 mph 1021mb 53f 56f
11:06pm 14 21 mph 1021mb 53f 56f
11:00pm 14 20 mph 1021mb 53f 56f
10:54pm 13 20 mph 1021.1mb 53f 56f
10:48pm 14 17 mph 1021.1mb 53f 56f
10:36pm 13 17 mph 1021mb 53f 56f
10:30pm 14 17 mph 1021mb 53f 56f
10:24pm 14 20 mph 1021mb 53f 56f
10:18pm 13 16 mph 1020.9mb 53f 56f
10:12pm 14 21 mph 1020.9mb 53f 56f
10:06pm 13 17 mph 1020.9mb 53f 56f
10:00pm 13 16 mph 1021mb 53f 55f
9:54pm 15 20 mph 1020.9mb 53f 55f
9:48pm 16 21 mph 1020.8mb 53f 55f
9:36pm 16 21 mph 1020.7mb 53f 55f
9:30pm 16 20 mph 1020.6mb 53f 55f
9:24pm 17 21 mph 1020.5mb 53f 55f
9:18pm 15 20 mph 1020.5mb 53f 55f
9:12pm 14 21 mph 1020.4mb 53f 55f
9:06pm 16 21 mph 1020.4mb 53f 55f
9:00pm 15 20 mph 1020.4mb 53f 55f
8:54pm 16 20 mph 1020.3mb 53f 55f
8:48pm 17 20 mph 1020.3mb 53f 55f
8:36pm 15 21 mph 1020.3mb 53f 55f
8:30pm 18 22 mph 1020.3mb 53f 56f
8:24pm 16 20 mph 1020.3mb 53f 56f
8:18pm 16 21 mph 1020.3mb 53f 56f
8:12pm 15 18 mph 1020.2mb 53f 57f
8:06pm 16 18 mph 1020.1mb 53f 57f
8:00pm 16 20 mph 1020.1mb 53f 57f
7:54pm 16 20 mph 1020.1mb 53f 57f
7:48pm 15 18 mph 1020.1mb 53f 57f
7:36pm 16 18 mph 1020.1mb 53f 58f
7:30pm 15 22 mph 1020.1mb 53f 58f
7:24pm 16 20 mph 1020.1mb 53f 57f
7:18pm 17 21 mph 1020.1mb 53f 57f
7:12pm 17 20 mph 1020.1mb 53f 57f
7:06pm 16 20 mph 1020.1mb 53f 57f
7:00pm 17 23 mph 1020.1mb 53f 56f
6:54pm 18 22 mph 1020mb 53f 57f
6:48pm 18 23 mph 1020mb 53f 56f
6:36pm  -  mph 1020mb 53f 57f
6:30pm  -  mph 1020mb 53f 57f
6:24pm  -  mph 1020mb 53f 58f
6:18pm  -  mph 1020.1mb 53f 57f
6:12pm  -  mph 1020.1mb 53f 58f
6:06pm  -  mph 1020.1mb 53f 58f
6:00pm  -  mph 1020.2mb 53f 57f
5:54pm  -  mph 1020.2mb 53f 57f
5:48pm  -  mph 1020.2mb 53f 58f
5:36pm 18 21 mph 1020.3mb 53f 58f
5:30pm 18 21 mph 1020.4mb 53f 58f
5:24pm 17 21 mph 1020.4mb 53f 58f
5:18pm 18 21 mph 1020.4mb 53f 58f
5:12pm 16 21 mph 1020.5mb 53f 58f
5:06pm 17 20 mph 1020.6mb 53f 58f
5:00pm 17 20 mph 1020.7mb 53f 58f
4:54pm 15 21 mph 1020.7mb 53f 58f
4:48pm 16 20 mph 1020.8mb 53f 58f
4:36pm  -  mph 1021mb 53f 58f
4:30pm  -  mph 1021mb 53f 57f
4:24pm  -  mph 1021.1mb 53f 58f
4:18pm  -  mph 1021.2mb 53f 58f
4:12pm  -  mph 1021.1mb 53f 57f
4:06pm  -  mph 1021.2mb 53f 57f
4:00pm  -  mph 1021.3mb 53f 57f
3:54pm  -  mph 1021.3mb 53f 57f
3:48pm  -  mph 1021.3mb 53f 57f
3:36pm  -  mph 1021.4mb - 57f
3:30pm  -  mph 1021.4mb - 57f
3:24pm  -  mph 1021.5mb - 57f
3:18pm  -  mph 1021.6mb - 57f
3:12pm  -  mph 1021.6mb - 56f
3:06pm  -  mph 1021.7mb - 56f
3:00pm  -  mph 1021.7mb - 56f
2:54pm  -  mph 1021.8mb - 56f
2:48pm  -  mph 1021.7mb - 56f
2:36pm 20 24 mph 1021.8mb 52f 56f
2:30pm 21 23 mph 1021.8mb 52f 56f
2:24pm 20 24 mph 1021.9mb 52f 56f
2:18pm 20 23 mph 1021.9mb 52f 56f
2:12pm 18 23 mph 1022mb 52f 56f
2:06pm 17 22 mph 1021.9mb 52f 56f
2:00pm 16 22 mph 1022mb 52f 56f
1:54pm 16 21 mph 1022mb 52f 56f
1:48pm 15 18 mph 1022mb 52f 56f
1:36pm 17 21 mph 1022.1mb 52f 55f
1:30pm 16 21 mph 1022.2mb 52f 55f
1:24pm 14 21 mph 1022.3mb 52f 55f
1:18pm 17 22 mph 1022.3mb 52f 55f
1:12pm 17 22 mph 1022.4mb 52f 55f
1:06pm 17 21 mph 1022.4mb 52f 55f
1:00pm 18 22 mph 1022.4mb 52f 55f
12:54pm 18 22 mph 1022.4mb 52f 55f
12:48pm 16 21 mph 1022.4mb 52f 55f
12:36pm 17 22 mph 1022.5mb 52f 55f
12:30pm 18 22 mph 1022.5mb 52f 55f
12:24pm 17 21 mph 1022.5mb 52f 55f
12:18pm 17 22 mph 1022.5mb 52f 55f
12:12pm 16 21 mph 1022.6mb 52f 55f
12:06pm 16 21 mph 1022.6mb 52f 55f
12:00pm 16 21 mph 1022.7mb 52f 55f
11:54am 17 21 mph 1022.7mb 52f 55f
11:48am 15 20 mph 1022.8mb 52f 55f
11:36am 16 21 mph 1022.8mb 52f 54f
11:30am 17 21 mph 1022.9mb 52f 54f
11:24am 16 20 mph 1022.9mb 52f 54f
11:18am 18 22 mph 1022.9mb 52f 54f
11:12am 16 21 mph 1022.9mb 53f 54f
11:06am 15 20 mph 1022.9mb 53f 55f
11:00am 16 21 mph 1022.9mb 53f 54f
10:54am 17 20 mph 1022.9mb 53f 54f
10:48am 16 21 mph 1022.9mb 53f 54f
10:36am 16 20 mph 1022.9mb 53f 54f
10:30am 17 21 mph 1023mb 53f 55f
10:24am 15 20 mph 1023mb 52f 54f
10:18am 14 18 mph 1023mb 52f 55f
10:12am 14 18 mph 1023.1mb 52f 55f
10:06am 15 18 mph 1023.1mb 52f 55f
10:00am 15 20 mph 1023.1mb 52f 54f
9:54am 15 18 mph 1023.2mb 52f 55f
9:48am 15 18 mph 1023.2mb 52f 55f
9:36am 14 17 mph 1023.3mb 52f 55f
9:30am 14 17 mph 1023.3mb 52f 55f
9:24am 14 17 mph 1023.3mb 52f 55f
9:18am 13 17 mph 1023.3mb 52f 55f
9:12am 14 17 mph 1023.2mb 52f 55f
9:06am 15 18 mph 1023.3mb 52f 55f
9:00am 15 18 mph 1023.3mb 52f 55f
8:54am 14 16 mph 1023.2mb 52f 55f
8:48am 13 15 mph 1023.2mb 52f 55f
8:36am 14 15 mph 1023.2mb 52f 55f
8:30am 13 14 mph 1023.2mb 52f 55f
8:24am 13 16 mph 1023.2mb 52f 55f
8:18am 13 14 mph 1023.2mb 52f 55f
8:12am 11 14 mph 1023.2mb 52f 55f
8:06am 13 14 mph 1023.2mb 52f 55f
8:00am 10 13 mph 1023.2mb 52f 55f
7:54am 10 13 mph 1023.2mb 52f 55f
7:48am 9 14 mph 1023.2mb 52f 55f
7:36am 7 13 mph 1023.1mb 52f 55f
7:30am 7 9 mph 1023.1mb 52f 56f
7:24am 7 10 mph 1023.1mb 52f 55f
7:18am 7 14 mph 1023mb 52f 55f
7:12am 10 14 mph 1023mb 52f 55f
7:06am 8 11 mph 1023.1mb 52f 55f
7:00am 6 10 mph 1023mb 52f 55f
6:54am 8 10 mph 1023mb 52f 56f
6:48am 7 11 mph 1023mb 52f 56f
6:36am 6 9 mph 1023mb 52f 55f
6:30am 7 9 mph 1023mb 52f 55f
6:24am 6 8 mph 1022.9mb 52f 55f
6:18am 6 10 mph 1022.8mb 52f 55f
6:12am 6 8 mph 1022.8mb 52f 55f
6:06am 5 8 mph 1022.7mb 52f 55f
6:00am 7 10 mph 1022.7mb 52f 55f
5:54am 6 11 mph 1022.6mb 52f 55f
5:48am 5 7 mph 1022.6mb 52f 55f
5:36am 5 11 mph 1022.5mb 52f 55f
5:30am 9 14 mph 1022.5mb 52f 55f
5:24am 9 13 mph 1022.5mb 53f 55f
5:18am 8 13 mph 1022.4mb 53f 55f
5:12am 8 13 mph 1022.4mb 53f 55f
5:06am 8 11 mph 1022.4mb 53f 55f
5:00am 7 11 mph 1022.4mb 53f 55f
4:54am 6 10 mph 1022.4mb 53f 55f
4:48am 7 13 mph 1022.4mb 53f 55f
4:36am 9 13 mph 1022.3mb 53f 55f
4:30am 7 10 mph 1022.3mb 53f 55f
4:24am 8 13 mph 1022.2mb 53f 55f
4:18am 5 10 mph 1022.2mb 53f 55f
4:12am 7 14 mph 1022.3mb 53f 55f
4:06am 6 10 mph 1022.2mb 53f 55f
4:00am 5 10 mph 1022.2mb 53f 55f
3:54am 6 9 mph 1022.1mb 53f 55f
3:48am 7 10 mph 1022.1mb 53f 55f
3:36am 6 10 mph 1022mb 53f 55f
3:30am 7 10 mph 1021.9mb 53f 55f
3:24am 8 13 mph 1021.9mb 53f 55f
3:18am 8 10 mph 1021.9mb 52f 55f
3:12am 6 8 mph 1021.8mb 52f 55f
3:06am 6 10 mph 1021.9mb 52f 55f
3:00am 9 13 mph 1021.8mb 52f 55f
2:54am 8 13 mph 1021.7mb 52f 55f
2:48am 9 13 mph 1021.7mb 52f 55f
2:36am 7 11 mph 1021.7mb 52f 55f
2:30am 8 13 mph 1021.7mb 52f 55f
2:24am 7 14 mph 1021.6mb 51f 55f
2:18am 10 15 mph 1021.7mb 52f 55f
2:12am 13 16 mph 1021.6mb 52f 55f
2:06am 11 18 mph 1021.6mb 52f 55f
2:00am 11 16 mph 1021.6mb 52f 55f
1:54am 13 17 mph 1021.6mb 52f 55f
1:48am 13 18 mph 1021.6mb 52f 55f
1:36am 14 17 mph 1021.6mb 52f 55f
1:30am 14 18 mph 1021.6mb 52f 55f
1:24am 11 16 mph 1021.6mb 52f 56f
1:18am 11 16 mph 1021.6mb 52f 56f
1:12am 11 17 mph 1021.6mb 52f 56f
1:06am 9 13 mph 1021.6mb 52f 56f
1:00am 9 14 mph 1021.7mb 52f 56f
12:54am 11 17 mph 1021.7mb 52f 56f
12:48am 11 16 mph 1021.7mb 52f 56f
12:36am 10 16 mph 1021.7mb 52f 56f
12:30am 13 17 mph 1021.7mb 52f 56f
12:24am 14 20 mph 1021.6mb 52f 56f
12:18am 14 18 mph 1021.7mb 52f 56f
12:12am 16 21 mph 1021.7mb 52f 56f
12:06am 16 22 mph 1021.7mb 52f 56f
12:00am 14 21 mph 1021.7mb 53f 56f
Mon 06/27 11:54pm 16 20 mph 1021.7mb 53f 56f
11:48pm 14 18 mph 1021.7mb 53f 56f
11:36pm 14 20 mph 1021.7mb 53f 56f
11:30pm 14 18 mph 1021.7mb 53f 56f
11:24pm 13 18 mph 1021.7mb 53f 56f
11:18pm 13 18 mph 1021.7mb 52f 56f
11:12pm 11 16 mph 1021.6mb 52f 56f
11:06pm 15 20 mph 1021.6mb 52f 56f
11:00pm 15 20 mph 1021.6mb 52f 56f
10:54pm 14 17 mph 1021.7mb 52f 56f
10:48pm 14 20 mph 1021.7mb 52f 56f
10:36pm 13 18 mph 1021.7mb 52f 56f
10:30pm 11 16 mph 1021.7mb 52f 56f
10:24pm 13 17 mph 1021.7mb 52f 56f
10:18pm 10 16 mph 1021.7mb 52f 56f
10:12pm 13 20 mph 1021.7mb 52f 56f
10:06pm 13 16 mph 1021.6mb 52f 56f
10:00pm 13 16 mph 1021.5mb 52f 56f
9:54pm 10 17 mph 1021.5mb 53f 56f
9:48pm 14 18 mph 1021.4mb 53f 56f
9:36pm 13 18 mph 1021.3mb 53f 56f
9:30pm 14 17 mph 1021.2mb 53f 55f
9:24pm 14 20 mph 1021.2mb 53f 56f
9:18pm 16 20 mph 1021.1mb 53f 56f
9:12pm 16 20 mph 1021.1mb 53f 56f
9:06pm 15 17 mph 1021mb 53f 56f
9:00pm 15 20 mph 1020.9mb 53f 55f
8:54pm 15 20 mph 1020.8mb 53f 56f
8:48pm 17 21 mph 1020.7mb 53f 56f
8:36pm 16 20 mph 1020.7mb 53f 56f
8:30pm 16 21 mph 1020.7mb 53f 56f
8:24pm 15 20 mph 1020.8mb 53f 56f
8:18pm 18 22 mph 1020.7mb 53f 56f
8:12pm 16 22 mph 1020.8mb 53f 56f
8:06pm 18 23 mph 1020.7mb 53f 56f
8:00pm 18 23 mph 1020.6mb 53f 57f
7:54pm 15 22 mph 1020.6mb 53f 57f
7:48pm 17 23 mph 1020.5mb 53f 57f
7:36pm 20 24 mph 1020.4mb 53f 58f
7:30pm 20 25 mph 1020.4mb 53f 57f
7:24pm 20 23 mph 1020.4mb 53f 57f
7:18pm 21 28 mph 1020.3mb 53f 58f
7:12pm 20 26 mph 1020.2mb 53f 58f
7:06pm 20 25 mph 1020.2mb 53f 58f
7:00pm 21 28 mph 1020.3mb 53f 58f
6:54pm 22 28 mph 1020.3mb 53f 58f
6:48pm 20 25 mph 1020.2mb 53f 57f
6:36pm 23 26 mph 1020.1mb 53f 58f
6:30pm 23 25 mph 1020mb 53f 58f
6:24pm 21 25 mph 1020mb 53f 59f
6:18pm 20 23 mph 1020mb 53f 59f
6:12pm 21 23 mph 1020.1mb 53f 58f
6:06pm 17 21 mph 1020.1mb 53f 59f
6:00pm 17 21 mph 1020.2mb 53f 60f
5:54pm 15 20 mph 1020.2mb 53f 59f
5:48pm 15 20 mph 1020.3mb 53f 59f
5:36pm 17 20 mph 1020.4mb 53f 59f
5:30pm 16 21 mph 1020.5mb 53f 60f
5:24pm 17 23 mph 1020.6mb 53f 59f
5:18pm 21 23 mph 1020.6mb 53f 60f
5:12pm 21 23 mph 1020.5mb 53f 59f
5:06pm 20 22 mph 1020.5mb 53f 59f
5:00pm 21 23 mph 1020.5mb 53f 58f
4:54pm 21 23 mph 1020.6mb 53f 58f
4:48pm 20 25 mph 1020.6mb 53f 58f
4:36pm  -  mph 1020.6mb 53f 59f
4:30pm  -  mph 1020.6mb 53f 58f
4:24pm  -  mph 1020.7mb 53f 59f
4:18pm  -  mph 1020.7mb 53f 60f
4:12pm  -  mph 1020.7mb 53f 60f
4:06pm  -  mph 1020.7mb 53f 60f
4:00pm  -  mph 1020.7mb 53f 60f
3:54pm  -  mph 1020.7mb 53f 60f
3:48pm  -  mph 1020.7mb 53f 60f
3:36pm  -  mph 1020.7mb 53f 58f
3:30pm  -  mph 1020.8mb 54f 58f
3:24pm  -  mph 1020.8mb 54f 59f
3:18pm  -  mph 1020.9mb 54f 60f
3:12pm  -  mph 1020.9mb 54f 61f
3:06pm  -  mph 1021mb 54f 60f
3:00pm  -  mph 1021mb 54f 58f
2:54pm  -  mph 1021mb 54f 58f
2:48pm  -  mph 1021mb 54f 58f
2:36pm 17 22 mph 1021mb 54f 58f
2:30pm 17 21 mph 1021.1mb 54f 58f
2:24pm 17 21 mph 1021.1mb 54f 58f
2:18pm 17 20 mph 1021.1mb 54f 57f
2:12pm 17 21 mph 1021.1mb 54f 57f
2:06pm 18 21 mph 1021.2mb 54f 57f
2:00pm 15 20 mph 1021.3mb 53f 57f
1:54pm 18 22 mph 1021.2mb 53f 57f
1:48pm 17 21 mph 1021.3mb 53f 57f
1:36pm 18 22 mph 1021.3mb 53f 56f
1:30pm 18 23 mph 1021.3mb 53f 56f
1:24pm 17 22 mph 1021.4mb 53f 57f
1:18pm 18 22 mph 1021.4mb 53f 56f
1:12pm 17 21 mph 1021.4mb 53f 56f
1:06pm 17 20 mph 1021.4mb 53f 57f
1:00pm 17 20 mph 1021.4mb 53f 57f
12:54pm 16 18 mph 1021.4mb 53f 57f
12:48pm 16 20 mph 1021.3mb 53f 56f
12:36pm 17 21 mph 1021.4mb 53f 57f
12:30pm 16 18 mph 1021.4mb 53f 57f
12:24pm 16 20 mph 1021.4mb 53f 57f